Location: Unspecified
(48.5670°N, 0.0000°E)
Time: 11:36:31
(UTC+00:00)

Tiros 1 - Pass Details

Date: 27 October 2020
Orbit: 630 x 664 km, 48.4° (Epoch: 03 December)

Event Time Altitude Azimuth Distance (km) Brightness Sun altitude
Exits shadow 05:24:23 16° 248° (WSW) 1,644 8.7 -12.9°
Maximum altitude 05:28:02 73° 166° (SSE) 660 7.2 -12.3°
Drops below altitude 10° 05:32:39 10° 82° (E) 2,011 11.1 -11.5°
Sets 05:34:58 0° 80° (E) 2,922 12.2 -11.1°
